Вернуться в каталог

FENGYUN 1C DEB

АктивенPO
NORAD 32137·DEBRIS·🇨🇳 China

Запущен May 10, 1999 с Taiyuan Satellite Launch Center

Loading…

Ближайшие Пролёты (ближайшие 24 часа)

TLE

СвежийSource: Space-Track

Эпоха: Sep 12, 2026, 04:28 UTC

1 32137U 99025CSF 26255.18612931  .00006999  00000-0  60986-3 0  9997
2 32137  98.4757  44.0048 0170886 233.1149 125.4299 14.86631854707878

Отслеживайте FENGYUN 1C DEB в реальном времени с AllMySat

Download on the App Store